カタログに戻る

STARLINK-34260

運用中通信VLEO
NORAD 64334·PAYLOAD·🇺🇸 United States

打ち上げ Jun 10, 2025 から Cape Canaveral Space Force Station

Loading…

次のパス (今後24時間)

TLE

最新Source: CelesTrak SupGP

元期: Sep 15, 2026, 02:21 UTC

1 64334C 25124T   26258.09840278  .00059647  00000+0  21604-2 0  2588
2 64334  42.9995 132.2582 0001326 272.4282 150.6716 15.27549503    10

AllMySatでSTARLINK-34260をリアルタイム追跡

Download on the App Store